Location: Saratoga Springs
(43.0831°N, 73.7850°W)
Time: 17:01:08
(UTC-04:00)

Vanguard 2 - Pass Details

Date: 19 April 2024
Orbit: 553 x 2914 km, 32.9° (Epoch: 19 May)

Event Time Altitude Azimuth Distance (km) Brightness Sun altitude
Rises 00:44:10 0° 199° (SSW) 5,493 - -35.5°
Reaches altitude 10° 00:48:24 10° 187° (S) 4,832 - -35.6°
Maximum altitude 00:59:17 26° 139° (SE) 4,288 - -35.6°
Exits shadow 01:02:06 25° 125° (SE) 4,458 11.0 -35.5°
Drops below altitude 10° 01:12:00 10° 92° (E) 5,742 12.0 -35.4°
Sets 01:17:35 0° 82° (E) 6,715 12.5 -35.3°
